Regional Weather Roundup
Issued by NWS Green Bay, WI

Home | Current Version | Previous Version | Graphics & Text | Print | Product List | Glossary Off
Versions: 1 2 3 4 5 6 7 8 9 10 11 12 13 14 15 16 17 18 19 20 21 22 23 24 25 26 27 28 29 30 31 32 33 34 35 36 37 38 39 40 41 42 43 44 45 46 47 48 49 50

000
ASUS43 KGRB 261510
RWRGRB

NORTH-CENTRAL AND NORTHEAST WISCONSIN REGIONAL WEATHER ROUNDUP
NATIONAL WEATHER SERVICE GREEN BAY WI
900 AM CST FRI DEC 26 2014

WIZ005-009-010>012-018-019-261600-
NORTH CENTRAL WISCONSIN

CITY           SKY/WX    TMP DP  RH WIND       PRES   REMARKS
IRONWOOD       CLOUDY    30  28  93 N6        29.94R
MANITOWISH WTR CLOUDY    28  28 100 CALM      29.94R
ARBOR VITAE    CLOUDY    32  30  94 CALM      29.93R FOG
EAGLE RIVER    CLOUDY    29  29 100 CALM      29.94R FOG
LAND O LAKES   CLOUDY    28  28 100 CALM      29.94R FOG
RHINELANDER    CLOUDY    29  28  96 CALM      29.94R FOG
PHILLIPS       CLOUDY    29  28  94 NE3       29.93R
ANTIGO         FOG       29  29 100 CALM      29.94R VSB<1/4
TOMAHAWK       CLOUDY    30  28  94 CALM      29.94R FOG
MERRILL        CLOUDY    30  30 100 CALM      29.94R FOG
$$

WIZ013-073-261600-
NORTHEAST WISCONSIN

CITY           SKY/WX    TMP DP  RH WIND       PRES   REMARKS
IRON MOUNTAIN  CLOUDY    31  29  92 CALM      29.94R FOG
MARINETTE      CLOUDY    32  30  93 CALM      29.95S
OCONTO         SUNNY     28  28 100 CALM      29.97R
$$

WIZ017-030-035>037-045-261600-
CENTRAL WISCONSIN

CITY           SKY/WX    TMP DP  RH WIND       PRES   REMARKS
MEDFORD        CLOUDY    29  29  98 NE5       29.92R FOG
WAUSAU         FOG       29  28  96 E3        29.92R VSB 1/2
MOSINEE        FOG       27  27 100 NE5       29.93R VSB 1/8
MARSHFIELD     MOSUNNY   29  28  96 CALM      29.91R FOG
WISC RAPIDS    SUNNY     31  28  89 CALM      29.94S
STEVENS POINT  SUNNY     25  25  99 NE3       29.94R FOG
WAUPACA        FOG       29  28  96 CALM      29.95S VSB 1/4
SHAWANO        FOG       29  28  96 CALM      29.97R VSB<1/4
CLINTONVILLE   FOG       28  28 100 CALM      29.96R VSB<1/4
$$

WIZ038-039-048-051-261600-
FOX VALLEY

CITY           SKY/WX    TMP DP  RH WIND       PRES   REMARKS
NWS GREEN BAY  SUNNY     34  33  96 CALM      29.97R
APPLETON       MOSUNNY   32  32 100 VRB3      29.96R
OSHKOSH        SUNNY     35  32  88 CALM      29.96R
FOND DU LAC    SUNNY     39  34  82 SW13      29.95R
$$

WIZ022-050-052-261600-
EAST CENTRAL WISCONSIN

CITY           SKY/WX    TMP DP  RH WIND       PRES   REMARKS
STURGEON BAY   MOSUNNY   36  32  87 S6        29.98R
MANITOWOC      SUNNY     39  36  89 CALM      29.98R
SHEBOYGAN      SUNNY     36  33  89 S5        29.97R
$$

LMZ563-521-522-541>543-261600-
LAKESHORE

STATION/POSITION TIME  TEMP    WIND        PRES    VSBY  WAVE
                       AIR SEA DIR/SP/G                  HT/PER
                 (UTC) (F)     (DEG/KT/KT) (MB)    (MI)  (FT/S)
SHEBOYGAN LKSHOR 1500   40 39  190/  9/ 11 1015.7R
KEWAUNEE LKSHORE 1500   36     190/  1/  4 1013.6S
ALGOMA MARINA    1500             CALM       N/A
NORTHPORT PIER   1500   35      CALM  /  1 1014.6F
SISTER BAY LKSHO 1500             CALM       N/A
CHAMBERS ISLAND  1500   33        CALM     1014.9R
MENOMINEE LKSHOR 1500   33      CALM  /  3 1015.2S
$$



USA.gov is the U.S. government's official web portal to all federal, state and local government web resources and services.